Retour au catalogue

AMC-6

GE-6

ActifCommunicationsGEO
NORAD 26580·PAYLOAD·🇱🇺 Luxembourg

Lancé Oct 21, 2000 depuis Baikonur Cosmodrome

Loading…

TLE

FraisSource: CelesTrak SupGP

Époque: Sep 13, 2026, 23:30 UTC

1 26580C 00067A   26256.97916667  .00000178  00000+0  00000+0 0  2566
2 26580   0.3743  83.6601 0004117  94.5372  32.2266  1.00270284    13

Suivez AMC-6 en temps réel avec AllMySat

Download on the App Store